sat.trackr.live / text

‹ back to catalog

EDISON-1

NORAD 62610 · 2025-009B

PAYLOAD ACTIVE UNKNOWN

§ Identity

Operator
Country
DEN
Launch date
2025-01-14
Launch site
AFWTR
Launch vehicle
Mass (kg)
RCS (m²)

External: N2YO · Heavens-Above · Gunter

§ Orbital elements

Epoch: 2026-05-25T04:29:16.325664Z

Period
94.06 min
Inclination
97.4003°
Eccentricity
0.0005986
Mean motion
15.30977110 rev/d
Perigee alt
468.8 km
Apogee alt
477.0 km
Semi-major
6,851.0 km
B*
4.1321e-4
RAAN
227.7428°
Arg perigee
45.8761°
Mean anomaly
314.2972°
Rev number
7,543

§ Raw data

EDISON-11 62610U 25009B   26145.18699451  .00012303  00000+0  41321-3 0  99942 62610  97.4003 227.7428 0005986  45.8761 314.2972 15.30977110 75432

JSON: /api/v1/satellites/62610 · /tle

For live sub-satellite position, see the globe view (requires WebGL).

§ Visibility from observer

Set your observer location to see the next 7 days of passes ≥ 10°. The values pass through the URL so the page stays shareable.

No JS? Fill the form by hand. The geolocation button needs JavaScript.

§ Radio — SatNOGS DB

ModeDescriptionDownlinkUplink
BPSK S-band telemetry 2.256 GHz
FM Mode S - Transmitter (inactive) 2.245 GHz

2 transmitters · refreshed weekly from db.satnogs.org